This is the latest recevied weather packets stored in our database for station/object KD9IXX-13. If no packets are shown the sender has not sent any weather packets the latest 10 day(s).
| Time | Temp. | Humidity | Pressure | Rain* | Wind** | Luminosity | Snow |
|---|---|---|---|---|---|---|---|
| 1787609102 | 26.67° C | 51% | 1019.2 hPa | 0 mm | - | 161 W/m² | - |
| 1787608802 | 26.11° C | 50% | 1019.4 hPa | 0 mm | - | 348 W/m² | - |
| 1787608502 | 25.56° C | 49% | 1019.3 hPa | 0 mm | - | 324 W/m² | - |
| 1787608201 | 25.56° C | 50% | 1019.5 hPa | 0 mm | - | 313 W/m² | - |
| 1787607602 | 25° C | 51% | 1019.2 hPa | 0 mm | - | 221 W/m² | - |
| 1787607302 | 25.56° C | 52% | 1019.4 hPa | 0 mm | - | 175 W/m² | - |
| 1787606103 | 26.67° C | 47% | 1019.2 hPa | 0 mm | - | 412 W/m² | - |
| 1787605502 | 26.11° C | 53% | 1019.1 hPa | 0 mm | - | 427 W/m² | - |
| 1787605202 | 26.11° C | 49% | 1019.2 hPa | 0 mm | - | 433 W/m² | - |
| 1787604602 | 26.67° C | 49% | 1019.5 hPa | 0 mm | - | 482 W/m² | - |
| 1787604302 | 26.67° C | 51% | 1019.6 hPa | 0 mm | - | 537 W/m² | - |
| 1787601602 | 25.56° C | 48% | 1019.6 hPa | 0 mm | - | 599 W/m² | - |
| 1787601302 | 25.56° C | 52% | 1019.6 hPa | 0 mm | - | 606 W/m² | - |
| 1787600702 | 26.11° C | 50% | 1019.7 hPa | 0 mm | - | 678 W/m² | - |
| 1787600402 | 25.56° C | 53% | 1019.5 hPa | 0 mm | - | 659 W/m² | - |
| 1787600102 | 24.44° C | 56% | 1019.9 hPa | 0 mm | - | 207 W/m² | - |
| 1787599801 | 25.56° C | 53% | 1020 hPa | 0 mm | - | 205 W/m² | - |
| 1787599202 | 25.56° C | 50% | 1020 hPa | 0 mm | - | 231 W/m² | - |
| 1787598602 | 26.11° C | 50% | 1020 hPa | 0 mm | - | 751 W/m² | - |
| 1787597702 | 26.11° C | 50% | 1020.1 hPa | 0 mm | - | 754 W/m² | - |
| 1787596802 | 25° C | 52% | 1020.4 hPa | 0 mm | - | 708 W/m² | - |
| 1787596502 | 23.89° C | 54% | 1020.4 hPa | 0 mm | - | 506 W/m² | - |
| 1787595602 | 25° C | 51% | 1020.2 hPa | 0 mm | - | 272 W/m² | - |
| 1787595301 | 25° C | 54% | 1020.1 hPa | 0 mm | - | 798 W/m² | - |
| 1787595002 | 25° C | 57% | 1020 hPa | 0 mm | - | 390 W/m² | - |
* Rain latest hour (hover to see other rain measurements)
** Current wind speed in m/s (hover to see current wind gust speed)